RH
94 90 94 99 99 100 100 100 98 99 97 94 88 83 88 87 85 86 83 88 97 98 92 95 96 94 92 86 86 98 98 97 95 91 86 79 87 91
97 98 100 99 100 99 100 100 100 100 99 95 94 92 91 93 92 90 93 97 99 99 100 100 96 97 97 95 96 97 91 92 94 93 87 87 87 91
98 94 94 95 91 85 82 80 82 94 98 99 100 96 98 96 95 99 99 100 100 99 100 99 96 93 93 92 96 99 100 97 96 97 91 90 90 89
94 92 85 77 73 67 67 75 82 89 98 98 95 95 100 100 100 100 100 100 100 99 100 96 95 94 94 93 92 94 95 96 93 96 95 92 90 87
82 74 70 67 66 67 69 72 77 87 94 99 99 98 99 100 100 100 100 99 100 100 100 97 93 92 93 95 95 96 92 88 86 85 82 72 81 85
65 64 63 65 67 69 70 75 82 91 98 96 100 100 100 100 100 100 100 100 100 100 99 94 97 94 93 96 95 93 87 84 82 78 65 49 51 83
64 64 66 68 72 72 73 78 88 99 99 96 94 100 100 100 99 99 100 100 99 96 97 97 99 96 92 95 93 88 82 74 66 58 44 33 42 91
66 69 70 73 76 78 83 90 95 100 99 99 98 100 99 100 100 100 100 99 98 97 96 94 94 92 88 84 79 76 72 67 53 45 68 76 94 97
66 72 76 78 79 83 86 91 91 92 94 98 100 100 100 100 100 100 100 100 95 92 89 88 82 76 71 64 56 49 48 53 53 66 88 94 96 96
72 76 77 78 79 82 85 88 88 88 91 90 93 95 97 99 100 100 100 100 99 94 91 78 75 72 64 58 48 42 56 63 71 89 94 96 99 98
78 77 75 80 82 80 81 81 83 84 85 86 83 83 87 92 99 100 100 100 96 87 83 62 64 66 61 55 47 50 89 94 93 93 96 97 96 99
75 77 82 81 78 90 87 80 84 82 76 76 77 73 77 79 90 94 94 98 84 83 75 63 56 53 69 58 58 79 92 94 89 67 93 96 97 97
79 79 82 84 88 94 100 95 90 81 67 64 60 59 58 57 57 70 82 84 84 75 61 66 60 60 62 81 74 87 94 85 74 80 94 94 97 97
87 86 85 84 83 86 97 100 93 78 63 58 51 44 41 42 42 42 44 54 65 65 56 53 48 53 66 94 88 78 90 88 77 79 94 99 98 99
98 99 96 91 84 87 99 99 83 74 65 63 55 46 44 44 47 51 51 53 58 57 59 58 59 59 64 66 82 85 82 79 79 75 79 91 93 91
100 100 100 95 90 91 96 88 77 63 57 63 65 56 50 51 54 61 62 60 62 70 78 80 78 77 70 69 64 68 79 76 77 76 75 74 71 69
95 100 100 98 92 93 93 90 85 76 62 58 58 60 58 57 59 66 73 72 74 73 73 79 83 82 80 78 74 68 66 71 66 74 82 78 69 65
100 99 99 99 94 92 90 82 81 78 68 63 58 58 63 62 63 68 77 80 84 83 81 75 81 96 88 62 61 68 69 71 67 72 76 81 64 50
100 99 99 100 98 99 98 91 80 68 67 72 70 64 60 66 73 74 75 81 89 86 89 86 88 99 90 79 59 85 82 74 72 76 78 89 64 41
99 99 99 99 100 100 100 100 98 98 83 66 65 63 63 66 74 84 82 78 93 91 92 92 87 90 93 77 74 61 71 77 66 74 73 70 56 44
99 100 100 100 100 100 100 100 98 99 100 98 87 75 61 65 68 68 69 77 91 96 97 92 58 63 73 81 87 82 52 48 54 54 51 64 78 71
100 100 99 100 100 100 99 100 99 98 100 100 100 99 85 65 62 64 64 66 71 93 88 65 63 75 91 97 90 85 67 56 55 57 59 57 54 75
100 100 100 100 100 100 100 99 99 99 98 99 100 99 99 98 86 74 64 61 65 67 79 98 81 83 91 90 96 95 89 76 69 66 63 53 50 45
Wind_Speed
5 4 1 1 0 4 4 6 5 3 3 9 7 8 13 15 14 17 17 15 12 11 12 10 8 7 6 4 3 11 14 12 14 12 9 8 10 10
6 3 2 3 3 4 4 4 5 8 3 5 8 10 10 12 14 16 14 14 14 13 11 11 9 8 7 6 10 9 11 11 12 10 9 9 10 11
6 4 4 4 4 3 3 4 4 5 5 6 7 10 11 13 14 15 14 15 15 14 13 12 11 10 9 11 11 10 11 10 11 9 8 10 11 10
6 5 4 2 1 1 2 3 3 4 5 9 10 13 12 13 15 15 16 16 17 16 14 12 11 11 11 11 10 11 11 13 10 11 10 10 10 9
7 6 5 3 2 2 3 3 3 5 7 9 12 14 14 15 15 16 17 18 17 16 13 11 10 11 11 11 13 13 13 11 13 12 9 10 10 9
7 6 4 2 1 1 2 3 3 5 6 8 12 11 12 12 15 19 19 19 17 16 14 11 11 11 11 12 12 13 12 11 12 10 9 9 11 10
9 6 3 1 3 4 3 4 4 5 7 10 12 9 10 12 14 15 22 21 18 17 16 14 14 13 13 12 12 12 10 11 11 10 10 10 11 11
7 5 3 3 3 4 4 4 4 4 6 8 11 10 14 16 15 15 16 12 6 18 18 18 16 15 15 14 13 13 11 12 12 12 11 10 11 11
7 6 4 2 2 3 4 5 4 4 5 7 10 10 9 8 10 15 17 15 8 7 21 15 17 17 16 15 15 14 14 12 12 12 12 12 12 11
5 4 2 1 2 3 5 6 4 4 5 4 6 9 10 11 10 10 13 16 11 9 16 7 13 16 16 16 15 14 13 13 13 12 13 14 13 11
5 3 3 3 2 2 3 7 7 6 6 4 5 6 6 6 6 7 7 13 6 7 14 6 7 10 12 13 14 13 13 13 12 12 12 14 15 12
5 5 6 5 3 4 5 7 8 7 6 6 5 4 4 4 2 3 6 12 4 4 12 11 9 8 3 10 15 16 15 12 12 12 12 14 15 15
5 6 6 6 6 7 9 8 8 6 5 4 4 4 4 3 2 2 4 8 10 7 4 16 10 11 5 3 13 17 19 16 15 13 12 13 15 17
8 8 6 6 7 8 9 10 6 6 4 4 5 5 5 5 4 3 4 6 8 10 8 14 6 12 9 5 4 17 21 19 17 17 17 16 16 13
9 9 7 6 6 8 10 9 7 7 7 6 6 6 6 6 6 5 4 4 5 6 9 12 13 9 11 7 4 8 14 20 21 20 20 20 20 19
13 11 10 9 9 9 10 10 9 7 8 8 8 7 7 6 6 6 5 4 4 5 6 8 9 10 10 12 10 7 14 8 20 21 19 19 20 20
12 11 12 12 12 12 11 11 10 9 9 9 9 9 9 8 8 8 8 6 6 4 6 8 8 9 11 12 12 15 14 15 12 14 18 18 19 20
9 12 14 15 15 13 13 12 12 12 12 11 12 12 12 11 10 10 11 10 10 9 8 7 8 6 8 13 19 18 15 19 19 18 18 15 18 17
14 17 17 16 16 14 13 13 14 14 13 15 15 15 15 14 12 13 13 13 12 12 11 10 9 6 5 3 2 13 17 16 13 15 17 16 14 8
16 18 19 18 17 15 13 13 13 14 16 17 17 17 17 17 17 16 16 15 13 11 12 14 16 16 12 5 2 4 9 13 14 12 14 15 16 14
16 18 18 17 16 14 14 13 14 15 17 17 18 18 18 19 20 20 18 17 15 13 13 16 21 15 15 14 8 8 14 12 12 13 10 12 8 8
13 14 16 15 14 13 13 14 15 15 16 18 19 20 19 20 21 20 19 19 19 18 19 17 14 13 18 17 15 12 13 13 13 15 18 18 10 5
11 10 11 12 12 12 12 13 15 16 15 16 18 19 20 22 22 22 22 22 21 21 18 13 15 17 19 22 19 16 15 18 17 19 24 23 23 24
Wind_Direction
194 204 203 242 307 270 243 236 183 211 230 225 210 246 252 252 258 259 258 253 247 238 232 232 217 212 208 222 230 162 166 172 167 177 182 180 153 153
176 193 227 270 235 229 228 233 225 240 244 232 223 242 249 249 247 250 245 234 231 230 223 216 216 216 214 200 192 196 210 210 192 180 168 164 155 147
170 205 233 242 255 272 275 275 270 271 286 285 265 267 257 252 245 237 232 226 234 230 230 229 233 232 224 229 217 207 197 194 183 176 160 153 148 151
199 207 210 207 231 321 316 308 300 294 269 279 287 274 261 265 253 241 230 224 227 225 227 227 232 230 226 215 210 211 198 178 176 163 156 157 161 162
179 174 162 151 134 65 40 9 345 301 280 277 278 274 265 255 243 234 229 231 226 224 223 217 219 215 208 199 198 202 198 191 195 200 190 187 178 170
153 152 150 139 130 38 10 343 336 330 298 284 289 276 262 252 244 240 231 225 222 219 215 210 202 202 200 202 206 214 205 199 200 201 199 203 192 176
159 161 171 217 276 299 314 313 314 332 307 308 298 269 256 248 238 243 235 231 222 220 212 206 204 209 199 197 207 216 212 208 213 212 209 206 198 178
169 178 199 238 274 289 298 305 327 323 304 295 288 271 276 271 263 254 232 205 228 227 218 213 214 216 214 215 217 224 225 225 222 215 208 194 185 182
176 175 193 238 291 291 305 303 326 322 296 284 285 290 289 290 280 251 233 219 211 217 206 216 222 222 221 222 224 225 226 229 228 212 197 188 193 190
172 179 189 242 285 340 332 306 309 307 316 323 305 298 285 282 273 271 257 231 224 214 195 207 218 218 223 226 226 225 220 219 218 206 194 190 194 197
199 210 219 238 267 357 311 299 320 307 302 324 335 326 317 299 267 253 225 194 208 213 204 213 206 209 219 223 219 214 207 201 203 206 204 200 201 202
206 233 223 217 246 274 279 299 289 287 287 282 296 309 332 346 336 260 249 216 184 216 215 201 194 192 193 223 209 201 196 204 213 218 213 209 201 202
230 244 244 249 255 255 261 274 278 277 271 276 287 292 309 323 326 266 233 233 236 248 245 200 204 203 197 162 200 203 205 215 211 201 194 192 196 206
242 236 245 245 251 260 252 262 268 263 275 278 279 287 296 300 295 283 264 242 240 245 245 211 235 207 193 177 193 211 213 216 216 211 205 201 201 209
256 248 252 258 255 250 246 252 241 252 264 268 284 289 285 280 275 272 266 260 249 242 220 217 226 233 216 207 195 209 202 221 221 221 220 222 224 227
247 240 244 255 253 253 245 237 247 261 262 263 272 279 275 261 252 249 245 238 239 236 226 224 226 229 229 226 224 223 205 207 216 219 223 229 233 238
238 238 238 239 243 246 248 247 250 251 255 261 263 264 260 251 243 240 240 235 235 246 247 238 236 236 239 240 237 235 229 229 228 220 225 237 242 245
236 241 244 245 247 253 254 253 251 249 252 256 258 256 255 248 243 239 238 235 238 244 248 248 238 239 269 263 243 238 235 237 238 236 240 246 259 253
232 245 254 257 259 260 264 259 256 258 260 255 255 255 254 251 242 240 238 235 238 242 245 239 224 210 228 252 261 226 228 233 229 227 232 232 249 249
242 250 258 263 266 268 270 268 271 267 257 255 256 255 252 248 243 241 239 238 238 239 243 235 232 224 214 222 240 237 234 225 219 222 231 240 251 253
253 256 261 265 268 273 275 273 274 271 265 258 257 256 253 246 245 247 248 246 241 237 235 235 249 253 245 246 258 254 250 242 232 232 234 233 241 261
261 262 266 268 270 274 277 278 274 271 270 265 261 259 255 251 249 249 245 244 238 234 248 261 258 232 224 226 236 243 259 257 252 247 244 242 230 222
271 271 272 272 274 276 278 280 278 276 277 277 274 268 263 253 254 254 255 254 252 250 241 237 243 233 232 235 239 244 246 257 258 253 254 251 251 256